����������;��������(kVARh)
2016-08-22 00:00;1
2016-08-22 00:15;0,9
2016-08-22 00:30;1,45
2016-08-22 00:45;2,45
2016-08-22 01:00;4,3
2016-08-22 01:15;3,95
2016-08-22 01:30;0,3
2016-08-22 01:45;0,85
2016-08-22 02:00;0,2
2016-08-22 02:15;1,25
2016-08-22 02:30;1
2016-08-22 02:45;2,7
2016-08-22 03:00;2,15
2016-08-22 03:15;3
2016-08-22 03:30;2,3
2016-08-22 03:45;3,25
2016-08-22 04:00;3,9
2016-08-22 04:15;4,55
2016-08-22 04:30;3,8
2016-08-22 04:45;4,65
2016-08-22 05:00;4,45
2016-08-22 05:15;5,8
2016-08-22 05:30;7,5
2016-08-22 05:45;9,05
2016-08-22 06:00;4,95
2016-08-22 06:15;22,8
2016-08-22 06:30;23,4
2016-08-22 06:45;11,8
2016-08-22 07:00;10,5
2016-08-22 07:15;16,85
2016-08-22 07:30;14,95
2016-08-22 07:45;14,3
2016-08-22 08:00;13,8
2016-08-22 08:15;17,05
2016-08-22 08:30;24,65
2016-08-22 08:45;33,55
2016-08-22 09:00;38,75
2016-08-22 09:15;41,1
2016-08-22 09:30;46,5
2016-08-22 09:45;40,1
2016-08-22 10:00;40,65
2016-08-22 10:15;38,35
2016-08-22 10:30;43,4
2016-08-22 10:45;50,35
2016-08-22 11:00;48,85
2016-08-22 11:15;47,75
2016-08-22 11:30;54,85
2016-08-22 11:45;59,4
2016-08-22 12:00;59,1
2016-08-22 12:15;62,4
2016-08-22 12:30;56,9
2016-08-22 12:45;58,5
2016-08-22 13:00;56
2016-08-22 13:15;57,2
2016-08-22 13:30;57,65
2016-08-22 13:45;51,25
2016-08-22 14:00;54,15
2016-08-22 14:15;62,9
2016-08-22 14:30;62,1
2016-08-22 14:45;59,3
2016-08-22 15:00;46,45
2016-08-22 15:15;46,05
2016-08-22 15:30;48
2016-08-22 15:45;43,65
2016-08-22 16:00;43,15
2016-08-22 16:15;42,2
2016-08-22 16:30;38,8
2016-08-22 16:45;44,05
2016-08-22 17:00;40,25
2016-08-22 17:15;37,4
2016-08-22 17:30;39,9
2016-08-22 17:45;34,85
2016-08-22 18:00;30,9
2016-08-22 18:15;29,1
2016-08-22 18:30;26,45
2016-08-22 18:45;21,7
2016-08-22 19:00;22,55
2016-08-22 19:15;16,3
2016-08-22 19:30;14,7
2016-08-22 19:45;14
2016-08-22 20:00;18,4
2016-08-22 20:15;12,85
2016-08-22 20:30;10,25
2016-08-22 20:45;7,4
2016-08-22 21:00;8,45
2016-08-22 21:15;8,6
2016-08-22 21:30;7,7
2016-08-22 21:45;5,95
2016-08-22 22:00;2,8
2016-08-22 22:15;3,8
2016-08-22 22:30;4,75
2016-08-22 22:45;5,3
2016-08-22 23:00;3,65
2016-08-22 23:15;5,55
2016-08-22 23:30;3,3
2016-08-22 23:45;2,95
2016-08-23 00:00;1,85
2016-08-23 00:15;0
2016-08-23 00:30;0
2016-08-23 00:45;0
2016-08-23 01:00;0
2016-08-23 01:15;0
2016-08-23 01:30;0
2016-08-23 01:45;0,3
2016-08-23 02:00;0,1
2016-08-23 02:15;0
2016-08-23 02:30;0
2016-08-23 02:45;0
2016-08-23 03:00;0
2016-08-23 03:15;0
2016-08-23 03:30;0
2016-08-23 03:45;0
2016-08-23 04:00;0
2016-08-23 04:15;0
2016-08-23 04:30;0
2016-08-23 04:45;0
2016-08-23 05:00;0
2016-08-23 05:15;0
2016-08-23 05:30;0
2016-08-23 05:45;0
2016-08-23 06:00;1,35
2016-08-23 06:15;2,05
2016-08-23 06:30;2,05
2016-08-23 06:45;1,85
2016-08-23 07:00;2,25
2016-08-23 07:15;1,5
2016-08-23 07:30;6,35
2016-08-23 07:45;4,9
2016-08-23 08:00;10,5
2016-08-23 08:15;18,15
2016-08-23 08:30;24,7
2016-08-23 08:45;23,2
2016-08-23 09:00;27
2016-08-23 09:15;28,2
2016-08-23 09:30;27,7
2016-08-23 09:45;36,15
2016-08-23 10:00;33,9
2016-08-23 10:15;35
2016-08-23 10:30;38,35
2016-08-23 10:45;28,1
2016-08-23 11:00;28,95
2016-08-23 11:15;45,95
2016-08-23 11:30;62,4
2016-08-23 11:45;71,9
2016-08-23 12:00;68,4
2016-08-23 12:15;59,95
2016-08-23 12:30;58,4
2016-08-23 12:45;57,45
2016-08-23 13:00;51,75
2016-08-23 13:15;57,7
2016-08-23 13:30;53,5
2016-08-23 13:45;55
2016-08-23 14:00;57,2
2016-08-23 14:15;54,15
2016-08-23 14:30;62,65
2016-08-23 14:45;66,5
2016-08-23 15:00;57,95
2016-08-23 15:15;53,9
2016-08-23 15:30;52,85
2016-08-23 15:45;43,55
2016-08-23 16:00;41
2016-08-23 16:15;42,45
2016-08-23 16:30;35,45
2016-08-23 16:45;43,4
2016-08-23 17:00;37,85
2016-08-23 17:15;32,7
2016-08-23 17:30;42,95
2016-08-23 17:45;37,7
2016-08-23 18:00;34,7
2016-08-23 18:15;32,8
2016-08-23 18:30;36,95
2016-08-23 18:45;37,6
2016-08-23 19:00;32,8
2016-08-23 19:15;29,8
2016-08-23 19:30;25,8
2016-08-23 19:45;20,35
2016-08-23 20:00;18,5
2016-08-23 20:15;13,8
2016-08-23 20:30;10,4
2016-08-23 20:45;7,95
2016-08-23 21:00;10,65
2016-08-23 21:15;12,65
2016-08-23 21:30;13,6
2016-08-23 21:45;15,95
2016-08-23 22:00;15,75
2016-08-23 22:15;15,15
2016-08-23 22:30;15,35
2016-08-23 22:45;12,75
2016-08-23 23:00;6,45
2016-08-23 23:15;7,15
2016-08-23 23:30;5,6
2016-08-23 23:45;3,2
2016-08-24 00:00;0,3
2016-08-24 00:15;0,1
2016-08-24 00:30;0,3
2016-08-24 00:45;0,7
2016-08-24 01:00;0,95
2016-08-24 01:15;1,95
2016-08-24 01:30;0,9
2016-08-24 01:45;0
2016-08-24 02:00;0
2016-08-24 02:15;0
2016-08-24 02:30;0
2016-08-24 02:45;0,05
2016-08-24 03:00;0
2016-08-24 03:15;0
2016-08-24 03:30;0
2016-08-24 03:45;0,05
2016-08-24 04:00;0
2016-08-24 04:15;0,3
2016-08-24 04:30;0,2
2016-08-24 04:45;0,7
2016-08-24 05:00;2,1
2016-08-24 05:15;2,2
2016-08-24 05:30;0,1
2016-08-24 05:45;0,65
2016-08-24 06:00;5,75
2016-08-24 06:15;6,05
2016-08-24 06:30;5
2016-08-24 06:45;7,6
2016-08-24 07:00;8,8
2016-08-24 07:15;14,1
2016-08-24 07:30;20,15
2016-08-24 07:45;19,35
2016-08-24 08:00;18,45
2016-08-24 08:15;23,1
2016-08-24 08:30;27,1
2016-08-24 08:45;30,95
2016-08-24 09:00;40,3
2016-08-24 09:15;36,85
2016-08-24 09:30;44,1
2016-08-24 09:45;43
2016-08-24 10:00;46
2016-08-24 10:15;39,3
2016-08-24 10:30;39,8
2016-08-24 10:45;43,8
2016-08-24 11:00;41,1
2016-08-24 11:15;56,75
2016-08-24 11:30;59,2
2016-08-24 11:45;51,05
2016-08-24 12:00;48,2
2016-08-24 12:15;57,1
2016-08-24 12:30;56,35
2016-08-24 12:45;55,75
2016-08-24 13:00;58,3
2016-08-24 13:15;57,35
2016-08-24 13:30;51,55
2016-08-24 13:45;55,15
2016-08-24 14:00;57,85
2016-08-24 14:15;52,4
2016-08-24 14:30;47,5
2016-08-24 14:45;53,7
2016-08-24 15:00;51,9
2016-08-24 15:15;43,05
2016-08-24 15:30;42,15
2016-08-24 15:45;35,85
2016-08-24 16:00;29,45
2016-08-24 16:15;32,9
2016-08-24 16:30;31,6
2016-08-24 16:45;30,7
2016-08-24 17:00;32,8
2016-08-24 17:15;28,3
2016-08-24 17:30;32,75
2016-08-24 17:45;32,45
2016-08-24 18:00;33,5
2016-08-24 18:15;28
2016-08-24 18:30;25,15
2016-08-24 18:45;24,25
2016-08-24 19:00;22,9
2016-08-24 19:15;18,8
2016-08-24 19:30;17,5
2016-08-24 19:45;13,55
2016-08-24 20:00;10,65
2016-08-24 20:15;6,35
2016-08-24 20:30;6,15
2016-08-24 20:45;7,85
2016-08-24 21:00;4,45
2016-08-24 21:15;7,45
2016-08-24 21:30;8,15
2016-08-24 21:45;8,75
2016-08-24 22:00;4,75
2016-08-24 22:15;7,3
2016-08-24 22:30;9,35
2016-08-24 22:45;3,15
2016-08-24 23:00;0,25
2016-08-24 23:15;0,3
2016-08-24 23:30;0
2016-08-24 23:45;0
2016-08-25 00:00;0,6
2016-08-25 00:15;0,05
2016-08-25 00:30;0
2016-08-25 00:45;0
2016-08-25 01:00;0
2016-08-25 01:15;0
2016-08-25 01:30;0
2016-08-25 01:45;0
2016-08-25 02:00;0
2016-08-25 02:15;0
2016-08-25 02:30;0
2016-08-25 02:45;0
2016-08-25 03:00;0
2016-08-25 03:15;0
2016-08-25 03:30;0
2016-08-25 03:45;0
2016-08-25 04:00;0
2016-08-25 04:15;0
2016-08-25 04:30;0
2016-08-25 04:45;0,1
2016-08-25 05:00;0,05
2016-08-25 05:15;0
2016-08-25 05:30;0
2016-08-25 05:45;0,25
2016-08-25 06:00;1,8
2016-08-25 06:15;2,9
2016-08-25 06:30;1,8
2016-08-25 06:45;2,6
2016-08-25 07:00;2,6
2016-08-25 07:15;7,1
2016-08-25 07:30;14,6
2016-08-25 07:45;17,65
2016-08-25 08:00;16,4
2016-08-25 08:15;23,75
2016-08-25 08:30;25,45
2016-08-25 08:45;22,25
2016-08-25 09:00;26,95
2016-08-25 09:15;29,35
2016-08-25 09:30;35,8
2016-08-25 09:45;33,8
2016-08-25 10:00;35,6
2016-08-25 10:15;26,05
2016-08-25 10:30;25,45
2016-08-25 10:45;33,5
2016-08-25 11:00;24,6
2016-08-25 11:15;31,6
2016-08-25 11:30;36,25
2016-08-25 11:45;48,8
2016-08-25 12:00;51,7
2016-08-25 12:15;39,65
2016-08-25 12:30;39
2016-08-25 12:45;41,4
2016-08-25 13:00;38,2
2016-08-25 13:15;45,85
2016-08-25 13:30;44,05
2016-08-25 13:45;56,95
2016-08-25 14:00;45,35
2016-08-25 14:15;51,5
2016-08-25 14:30;48,4
2016-08-25 14:45;53,6
2016-08-25 15:00;48
2016-08-25 15:15;44,7
2016-08-25 15:30;39,7
2016-08-25 15:45;36,15
2016-08-25 16:00;31,15
2016-08-25 16:15;30,1
2016-08-25 16:30;35,05
2016-08-25 16:45;35,95
2016-08-25 17:00;32,1
2016-08-25 17:15;42,4
2016-08-25 17:30;35,35
2016-08-25 17:45;29,5
2016-08-25 18:00;28,35
2016-08-25 18:15;27,9
2016-08-25 18:30;21,4
2016-08-25 18:45;19
2016-08-25 19:00;22,65
2016-08-25 19:15;9,9
2016-08-25 19:30;6,25
2016-08-25 19:45;4,55
2016-08-25 20:00;4,55
2016-08-25 20:15;8,9
2016-08-25 20:30;4,85
2016-08-25 20:45;5,05
2016-08-25 21:00;5,8
2016-08-25 21:15;6,55
2016-08-25 21:30;8,75
2016-08-25 21:45;9
2016-08-25 22:00;8,3
2016-08-25 22:15;12
2016-08-25 22:30;11,3
2016-08-25 22:45;12,4
2016-08-25 23:00;14,45
2016-08-25 23:15;13,65
2016-08-25 23:30;17,3
2016-08-25 23:45;9,25
2016-08-26 00:00;5,85
2016-08-26 00:15;3,9
2016-08-26 00:30;3,4
2016-08-26 00:45;0,45
2016-08-26 01:00;0
2016-08-26 01:15;0
2016-08-26 01:30;0
2016-08-26 01:45;0
2016-08-26 02:00;0
2016-08-26 02:15;0
2016-08-26 02:30;0
2016-08-26 02:45;0
2016-08-26 03:00;0,35
2016-08-26 03:15;0,2
2016-08-26 03:30;0,2
2016-08-26 03:45;0,95
2016-08-26 04:00;1,05
2016-08-26 04:15;0,6
2016-08-26 04:30;0,85
2016-08-26 04:45;0,85
2016-08-26 05:00;0,85
2016-08-26 05:15;1,15
2016-08-26 05:30;1,75
2016-08-26 05:45;1,8
2016-08-26 06:00;3,45
2016-08-26 06:15;8,6
2016-08-26 06:30;7,3
2016-08-26 06:45;5,75
2016-08-26 07:00;7,75
2016-08-26 07:15;7,2
2016-08-26 07:30;11,85
2016-08-26 07:45;29,8
2016-08-26 08:00;29,3
2016-08-26 08:15;28,7
2016-08-26 08:30;27,55
2016-08-26 08:45;22,55
2016-08-26 09:00;26,75
2016-08-26 09:15;25,6
2016-08-26 09:30;20,9
2016-08-26 09:45;29,1
2016-08-26 10:00;43,9
2016-08-26 10:15;36,75
2016-08-26 10:30;29,05
2016-08-26 10:45;40,05
2016-08-26 11:00;39,5
2016-08-26 11:15;37,8
2016-08-26 11:30;48,15
2016-08-26 11:45;47,4
2016-08-26 12:00;40,45
2016-08-26 12:15;50,75
2016-08-26 12:30;45,95
2016-08-26 12:45;41
2016-08-26 13:00;46,25
2016-08-26 13:15;45,85
2016-08-26 13:30;43,5
2016-08-26 13:45;38,35
2016-08-26 14:00;45,1
2016-08-26 14:15;42,9
2016-08-26 14:30;40,2
2016-08-26 14:45;40,9
2016-08-26 15:00;45,85
2016-08-26 15:15;38,75
2016-08-26 15:30;42,4
2016-08-26 15:45;42,5
2016-08-26 16:00;34,5
2016-08-26 16:15;41,2
2016-08-26 16:30;41,35
2016-08-26 16:45;32,1
2016-08-26 17:00;28,4
2016-08-26 17:15;24
2016-08-26 17:30;26,95
2016-08-26 17:45;19,55
2016-08-26 18:00;26,05
2016-08-26 18:15;24,4
2016-08-26 18:30;25,35
2016-08-26 18:45;23
2016-08-26 19:00;14,5
2016-08-26 19:15;2,25
2016-08-26 19:30;0,25
2016-08-26 19:45;0,15
2016-08-26 20:00;0,15
2016-08-26 20:15;1,95
2016-08-26 20:30;2,75
2016-08-26 20:45;1,7
2016-08-26 21:00;3,05
2016-08-26 21:15;5,95
2016-08-26 21:30;6,75
2016-08-26 21:45;6,5
2016-08-26 22:00;6,8
2016-08-26 22:15;7,9
2016-08-26 22:30;8,65
2016-08-26 22:45;6,9
2016-08-26 23:00;5,45
2016-08-26 23:15;6
2016-08-26 23:30;7,35
2016-08-26 23:45;9,9
2016-08-27 00:00;12,1
2016-08-27 00:15;10,45
2016-08-27 00:30;10,7
2016-08-27 00:45;9,8
2016-08-27 01:00;11,15
2016-08-27 01:15;6,85
2016-08-27 01:30;5
2016-08-27 01:45;7,35
2016-08-27 02:00;8,3
2016-08-27 02:15;0,1
2016-08-27 02:30;0
2016-08-27 02:45;0
2016-08-27 03:00;0
2016-08-27 03:15;0
2016-08-27 03:30;0
2016-08-27 03:45;0
2016-08-27 04:00;0
2016-08-27 04:15;0,1
2016-08-27 04:30;0
2016-08-27 04:45;0
2016-08-27 05:00;0
2016-08-27 05:15;0
2016-08-27 05:30;0
2016-08-27 05:45;0
2016-08-27 06:00;0,05
2016-08-27 06:15;0
2016-08-27 06:30;0
2016-08-27 06:45;0
2016-08-27 07:00;0,25
2016-08-27 07:15;0
2016-08-27 07:30;0
2016-08-27 07:45;9,85
2016-08-27 08:00;8,3
2016-08-27 08:15;4,9
2016-08-27 08:30;4,4
2016-08-27 08:45;3,6
2016-08-27 09:00;3,55
2016-08-27 09:15;5,75
2016-08-27 09:30;7,3
2016-08-27 09:45;8,6
2016-08-27 10:00;5,85
2016-08-27 10:15;0,8
2016-08-27 10:30;0,45
2016-08-27 10:45;0,75
2016-08-27 11:00;0,85
2016-08-27 11:15;1,45
2016-08-27 11:30;5,15
2016-08-27 11:45;6,6
2016-08-27 12:00;8,6
2016-08-27 12:15;9,6
2016-08-27 12:30;10,15
2016-08-27 12:45;9,55
2016-08-27 13:00;5,8
2016-08-27 13:15;4
2016-08-27 13:30;4,2
2016-08-27 13:45;3,5
2016-08-27 14:00;2,5
2016-08-27 14:15;4,6
2016-08-27 14:30;3,45
2016-08-27 14:45;2,55
2016-08-27 15:00;4,2
2016-08-27 15:15;3,9
2016-08-27 15:30;4,2
2016-08-27 15:45;7,65
2016-08-27 16:00;10,3
2016-08-27 16:15;2,25
2016-08-27 16:30;2,2
2016-08-27 16:45;3,25
2016-08-27 17:00;2,45
2016-08-27 17:15;0,3
2016-08-27 17:30;0
2016-08-27 17:45;0
2016-08-27 18:00;0
2016-08-27 18:15;0,2
2016-08-27 18:30;0,1
2016-08-27 18:45;1
2016-08-27 19:00;0,45
2016-08-27 19:15;0,5
2016-08-27 19:30;0,35
2016-08-27 19:45;0
2016-08-27 20:00;0
2016-08-27 20:15;0
2016-08-27 20:30;0
2016-08-27 20:45;0
2016-08-27 21:00;0
2016-08-27 21:15;0
2016-08-27 21:30;0
2016-08-27 21:45;0
2016-08-27 22:00;0
2016-08-27 22:15;0,05
2016-08-27 22:30;0,65
2016-08-27 22:45;1,35
2016-08-27 23:00;1,85
2016-08-27 23:15;0
2016-08-27 23:30;1,5
2016-08-27 23:45;0,2
2016-08-28 00:00;0,2
2016-08-28 00:15;0,05
2016-08-28 00:30;0,05
2016-08-28 00:45;0,2
2016-08-28 01:00;0
2016-08-28 01:15;0
2016-08-28 01:30;0,2
2016-08-28 01:45;0
2016-08-28 02:00;0,3
2016-08-28 02:15;0,5
2016-08-28 02:30;0
2016-08-28 02:45;0,1
2016-08-28 03:00;0
2016-08-28 03:15;0
2016-08-28 03:30;0
2016-08-28 03:45;0
2016-08-28 04:00;0
2016-08-28 04:15;0
2016-08-28 04:30;0
2016-08-28 04:45;0
2016-08-28 05:00;0
2016-08-28 05:15;0
2016-08-28 05:30;0,25
2016-08-28 05:45;0
2016-08-28 06:00;0,05
2016-08-28 06:15;0,05
2016-08-28 06:30;0,15
2016-08-28 06:45;0,15
2016-08-28 07:00;0,95
2016-08-28 07:15;0,45
2016-08-28 07:30;1,35
2016-08-28 07:45;2
2016-08-28 08:00;1,25
2016-08-28 08:15;1,8
2016-08-28 08:30;0,55
2016-08-28 08:45;0,85
2016-08-28 09:00;1,45
2016-08-28 09:15;0,05
2016-08-28 09:30;0,05
2016-08-28 09:45;0,05
2016-08-28 10:00;0
2016-08-28 10:15;2,25
2016-08-28 10:30;2,2
2016-08-28 10:45;2,9
2016-08-28 11:00;3,25
2016-08-28 11:15;3,55
2016-08-28 11:30;2,05
2016-08-28 11:45;1,85
2016-08-28 12:00;1,9
2016-08-28 12:15;3,3
2016-08-28 12:30;3,4
2016-08-28 12:45;7,5
2016-08-28 13:00;7,5
2016-08-28 13:15;6,85
2016-08-28 13:30;3,95
2016-08-28 13:45;4,8
2016-08-28 14:00;4,3
2016-08-28 14:15;3,6
2016-08-28 14:30;6,45
2016-08-28 14:45;4,65
2016-08-28 15:00;4,65
2016-08-28 15:15;5,7
2016-08-28 15:30;3,85
2016-08-28 15:45;6,4
2016-08-28 16:00;6,55
2016-08-28 16:15;4,95
2016-08-28 16:30;7,35
2016-08-28 16:45;6,3
2016-08-28 17:00;6,55
2016-08-28 17:15;7,45
2016-08-28 17:30;5
2016-08-28 17:45;4,95
2016-08-28 18:00;5,1
2016-08-28 18:15;1,6
2016-08-28 18:30;0,95
2016-08-28 18:45;0,7
2016-08-28 19:00;3,95
2016-08-28 19:15;6,95
2016-08-28 19:30;6,45
2016-08-28 19:45;2,6
2016-08-28 20:00;0,3
2016-08-28 20:15;0
2016-08-28 20:30;0,05
2016-08-28 20:45;0,15
2016-08-28 21:00;0
2016-08-28 21:15;0
2016-08-28 21:30;0
2016-08-28 21:45;0
2016-08-28 22:00;0,05
2016-08-28 22:15;0
2016-08-28 22:30;0
2016-08-28 22:45;0
2016-08-28 23:00;0
2016-08-28 23:15;0
2016-08-28 23:30;0,05
2016-08-28 23:45;0

